RH
65 66 68 70 74 77 78 78 77 78 78 78 79 80 80 78 75 72 69 65 63 60 60 65 72 75 77 79 79 75 72 76 81 79 65 53 50 48 46 44 42 42 42 43 43 40 40 39 38 37 37 36 34 33 32 31 32 34 36 37 38 38 39 41 44 46 48 47 46 48 51 55 59 63 65 67 68 69 71 73 74 76 77 76 78 76
60 59 59 62 66 70 73 74 75 76 77 78 79 80 81 79 77 77 74 71 69 65 63 67 71 76 82 87 88 79 71 75 86 96 91 75 65 63 60 53 48 50 52 53 51 49 50 49 47 43 40 38 37 36 34 33 35 38 39 41 44 44 42 41 42 48 53 55 55 54 56 60 63 66 68 69 71 71 72 74 74 75 78 79 81 82
56 54 54 55 58 61 63 64 65 67 69 71 74 75 76 75 75 75 74 74 75 73 71 73 75 76 80 83 84 76 67 71 83 97 104 97 88 83 77 69 63 63 66 67 62 57 56 54 52 48 45 44 43 41 38 39 43 46 46 49 50 48 48 45 44 46 51 56 60 61 62 64 66 68 70 72 73 75 76 77 79 80 83 87 90 93
51 50 49 49 50 53 56 58 59 59 59 61 65 67 68 69 68 67 69 71 73 76 77 80 83 82 80 78 76 72 69 73 83 93 103 108 105 100 97 92 84 81 83 79 71 65 62 60 57 54 53 51 50 47 45 49 54 56 57 58 55 52 52 53 52 52 53 57 61 65 68 70 73 74 76 78 79 82 85 85 86 88 91 97 101 104
51 51 50 50 53 54 57 60 60 58 57 58 60 62 61 61 62 62 65 68 70 75 75 78 84 82 81 81 79 80 80 82 88 92 99 106 108 105 105 105 100 98 97 87 76 73 73 72 68 63 61 57 53 50 50 58 65 67 69 68 62 59 60 62 64 66 67 69 68 69 71 73 79 83 84 87 89 90 92 94 96 97 101 106 107 107
55 57 58 59 62 65 65 65 65 64 62 61 61 61 59 58 60 60 62 66 69 72 71 80 87 78 78 86 85 87 87 84 89 95 99 105 108 106 104 103 102 100 100 93 85 81 81 80 79 76 72 66 60 54 50 58 67 70 75 79 74 70 71 73 77 82 87 89 88 83 81 81 84 90 94 96 98 101 102 105 107 106 106 108 106 105
57 61 67 68 71 76 75 70 71 72 71 70 67 66 64 64 66 64 63 65 67 68 71 82 87 77 80 89 85 85 85 78 79 92 103 108 108 107 105 105 102 97 96 95 92 91 89 85 86 87 82 75 70 62 53 56 64 67 71 79 82 80 80 81 83 88 95 99 99 96 93 93 93 94 97 100 101 102 105 110 113 108 103 103 102 102
60 62 69 75 79 83 83 81 80 82 85 81 76 76 76 76 78 76 75 75 74 73 74 80 84 78 79 84 77 75 78 75 74 83 95 102 107 109 108 107 106 101 96 95 95 95 93 92 92 90 84 79 75 68 57 56 65 68 67 71 78 81 81 80 81 83 91 98 100 99 97 97 97 93 92 96 99 98 98 104 109 108 105 102 100 100
66 65 68 75 81 82 83 86 86 88 91 84 78 81 81 80 82 81 83 84 81 81 81 81 83 79 75 77 72 67 70 74 76 80 81 87 97 103 105 107 108 107 102 99 98 95 92 94 96 93 89 85 79 71 60 59 68 68 65 66 71 78 79 79 79 79 84 91 96 98 98 98 99 98 94 93 99 102 99 97 100 105 107 104 101 101
77 76 74 75 77 77 76 81 81 83 85 80 77 80 77 77 78 77 79 80 78 81 84 82 81 80 79 84 83 76 76 76 76 81 82 84 92 96 100 104 107 110 109 106 103 98 92 89 91 92 92 88 84 78 69 69 73 70 66 66 67 73 79 82 84 85 86 88 92 96 100 102 103 105 103 98 100 104 104 99 96 99 103 105 106 106
69 75 77 76 76 75 74 76 77 78 80 77 78 80 76 75 75 74 75 74 74 77 80 78 74 76 82 91 94 87 83 81 77 79 84 88 92 95 99 102 105 109 110 108 104 97 90 85 89 94 93 89 89 87 81 79 81 80 78 75 72 76 83 89 93 95 95 96 97 98 100 103 105 106 107 106 105 105 104 103 100 98 99 102 107 109
51 57 64 71 77 80 79 80 78 79 79 77 81 82 79 78 75 75 75 73 73 75 74 74 69 70 77 86 93 89 83 84 80 77 84 90 94 97 101 104 106 108 107 107 105 100 94 91 94 97 97 95 95 93 91 89 89 91 93 90 86 86 91 98 103 104 104 105 104 103 103 104 105 107 108 107 107 106 103 100 99 97 95 96 101 108
44 45 48 54 63 71 77 81 80 81 81 82 86 83 80 80 73 72 77 73 75 75 72 75 71 68 73 77 84 86 81 82 79 74 75 79 84 89 95 102 107 109 107 105 105 103 101 101 100 99 98 97 94 91 90 92 92 94 98 98 96 93 93 96 102 106 108 108 106 105 106 106 106 107 108 108 106 105 102 97 95 94 94 94 95 101
43 43 43 44 48 54 61 70 75 79 83 87 90 85 84 87 79 75 78 75 79 81 75 78 77 75 79 80 79 81 80 80 79 75 70 66 67 70 77 88 96 101 104 105 106 105 103 104 103 101 100 98 94 89 86 86 87 89 94 98 98 97 96 94 94 96 100 103 104 103 103 105 107 107 107 107 106 104 103 100 97 94 94 97 96 96
45 43 44 44 44 46 49 55 60 66 74 79 82 84 89 93 86 82 83 80 85 86 76 76 79 81 87 86 80 79 81 83 82 79 75 70 66 65 66 73 79 83 89 95 99 102 103 104 104 103 103 102 99 93 87 84 83 83 85 88 91 95 98 98 95 92 92 94 95 97 99 100 102 104 105 105 105 105 104 103 102 100 97 98 99 97
50 47 47 47 47 47 47 50 52 56 63 65 67 75 81 83 80 78 79 80 82 79 72 72 75 78 81 80 78 79 81 83 83 81 80 77 75 74 72 73 75 76 77 80 82 85 90 95 100 105 106 106 105 99 92 88 88 87 84 82 83 87 92 97 97 94 92 90 89 89 92 94 96 97 98 100 102 103 103 104 105 104 101 98 100 102
60 56 54 53 56 58 55 55 55 58 63 63 65 70 71 73 75 72 70 71 73 72 68 67 69 70 70 70 71 73 73 73 75 76 77 78 77 76 76 75 76 76 75 74 74 74 77 81 87 97 103 106 107 104 98 94 95 95 92 87 85 87 90 92 94 96 94 92 91 89 88 90 93 94 95 95 97 98 100 102 104 104 103 100 97 97
78 75 69 65 67 71 71 68 65 64 67 67 67 69 68 70 73 70 65 65 67 67 65 64 66 66 65 64 64 63 63 64 65 66 67 69 69 69 70 70 71 72 72 71 69 69 72 75 79 86 93 96 96 93 91 91 93 95 96 94 91 90 92 91 91 94 95 93 92 91 91 92 92 93 94 96 97 96 95 96 97 97 99 100 98 95
92 95 89 83 79 80 83 81 77 73 73 73 71 69 68 68 67 65 62 62 61 60 59 60 61 60 60 60 59 56 56 57 59 60 60 60 61 61 62 63 64 65 66 67 66 65 66 70 72 75 81 83 81 78 77 79 81 83 86 88 86 86 91 94 91 91 94 95 95 94 94 95 94 91 92 94 95 92 89 88 88 88 89 92 95 96
98 102 101 96 92 89 87 86 85 82 80 80 77 72 70 67 65 62 59 58 58 55 54 54 54 56 57 54 53 51 51 53 54 54 55 56 57 57 58 59 60 61 61 62 62 61 62 65 66 66 68 70 70 72 72 71 72 73 75 76 75 74 77 83 86 88 91 96 99 100 98 97 95 91 89 91 90 88 85 84 84 86 88 89 89 91
98 102 103 101 100 97 91 87 85 83 79 76 74 70 67 64 62 60 57 55 54 53 51 51 54 59 58 54 53 53 51 51 51 51 51 52 53 54 55 55 56 57 57 58 58 58 58 60 61 62 62 61 61 63 64 63 63 65 66 67 67 63 60 63 69 76 83 89 93 94 93 93 91 87 86 86 86 86 85 85 86 87 90 93 93 92
97 99 100 99 99 97 90 86 83 79 75 71 68 64 62 60 59 59 60 60 58 55 53 52 54 58 57 54 53 52 50 48 47 47 47 47 48 48 49 49 50 50 50 51 51 52 53 53 55 56 57 58 57 56 57 57 57 57 57 58 60 58 55 53 55 60 66 71 73 74 75 78 80 79 80 82 81 81 81 84 88 89 90 92 95 96
99 99 99 98 97 93 88 85 81 76 73 70 66 63 61 59 59 57 59 61 59 58 57 53 52 52 50 48 46 44 43 41 40 40 39 39 40 40 41 41 42 43 43 43 44 45 46 46 47 48 48 50 50 50 50 50 51 51 50 52 53 53 52 51 50 51 53 55 55 57 59 62 66 69 70 72 74 74 73 76 81 85 88 90 91 94
100 100 100 99 96 92 88 84 79 76 74 71 69 69 67 64 62 60 58 57 54 53 53 49 47 45 42 40 39 38 37 36 34 34 33 33 33 33 34 34 35 37 37 37 37 37 38 38 39 39 40 40 40 41 41 42 42 42 42 43 44 44 44 44 44 43 45 46 45 46 49 51 55 58 60 63 66 67 68 68 70 74 79 83 86 89
96 95 96 96 91 88 87 83 79 76 75 75 75 76 75 71 68 65 61 56 52 48 46 43 40 38 36 34 34 34 34 34 33 31 31 31 31 31 32 33 33 34 34 35 34 34 34 35 35 36 36 36 36 36 37 38 39 39 39 39 39 39 38 37 38 37 38 39 38 38 39 41 44 47 50 54 57 59 60 59 59 60 63 69 74 76
92 89 90 91 85 83 85 83 79 79 79 79 78 77 75 71 66 62 57 52 48 44 41 38 36 34 32 30 30 30 30 31 30 31 31 31 32 34 35 36 36 37 37 37 37 37 37 37 37 37 37 37 37 38 38 39 39 39 39 40 40 40 39 37 36 36 36 35 35 35 35 34 35 36 38 42 44 47 49 50 51 52 53 57 63 66
90 89 88 87 82 80 81 80 82 86 84 81 78 74 70 65 60 55 50 46 43 40 38 36 35 35 32 29 30 29 28 29 29 30 31 32 34 37 39 41 43 43 43 42 41 42 43 43 43 43 42 42 42 41 41 41 42 42 41 41 40 41 42 42 40 39 38 36 35 36 35 33 32 32 32 33 35 37 39 40 43 46 48 50 52 56
83 85 84 84 83 80 79 79 84 89 86 80 75 69 62 56 51 47 44 42 39 37 36 35 35 37 36 34 35 34 32 34 35 36 37 38 37 37 39 41 45 48 49 49 48 47 46 46 47 48 48 49 49 49 47 45 46 46 46 44 43 41 42 43 44 43 42 40 38 38 37 35 34 33 31 30 31 32 32 33 34 36 39 41 43 45
75 76 77 81 83 82 83 85 88 88 82 74 66 59 53 48 44 42 41 41 40 38 38 38 37 41 45 44 44 44 42 43 44 43 46 50 49 47 46 45 46 48 52 55 56 55 53 50 49 49 48 48 50 51 51 50 49 48 49 48 47 46 43 42 42 43 43 43 42 41 40 38 36 35 34 33 32 31 31 30 30 30 31 33 35 36
77 73 72 80 85 87 90 90 86 80 72 63 55 49 45 41 40 40 40 41 42 41 42 42 41 45 50 51 53 55 55 53 51 49 51 56 59 60 59 57 54 52 51 54 56 59 59 59 57 55 53 51 51 51 51 52 51 50 50 49 50 51 50 48 45 44 43 43 42 42 41 41 40 38 38 37 36 34 33 32 30 29 30 30 31 32
87 84 84 91 92 89 87 81 72 65 57 50 45 41 39 41 42 41 40 39 40 41 42 44 46 49 55 60 64 66 63 58 54 51 50 52 55 58 59 58 58 57 56 56 57 58 59 60 61 60 58 57 57 57 55 54 53 52 51 49 49 49 51 53 52 50 48 46 45 45 44 43 42 40 40 39 39 38 37 36 35 33 31 31 32 32
96 93 90 90 83 75 69 60 53 47 41 37 35 35 37 39 39 39 38 40 42 44 46 49 53 57 61 66 70 69 64 61 57 53 52 52 53 54 54 55 56 56 56 56 57 57 58 59 61 62 61 60 60 60 60 59 57 55 53 51 49 47 48 50 51 52 51 50 50 50 48 47 45 44 43 42 42 41 40 39 39 37 36 34 33 33
77 72 67 62 56 51 46 42 39 36 32 31 32 35 38 39 39 40 43 45 48 53 58 62 67 69 67 68 70 67 63 62 60 57 55 53 51 50 49 49 51 52 52 51 51 52 53 54 56 57 58 58 57 57 57 57 57 56 55 54 52 50 48 48 48 49 49 49 50 51 50 50 49 49 48 48 47 46 45 44 43 43 42 40 38 37
46 44 42 39 37 37 35 35 36 34 33 35 38 40 42 43 46 50 53 59 66 73 77 78 76 73 68 66 66 62 59 57 55 53 52 51 49 47 45 45 46 48 50 52 52 52 52 51 51 51 52 52 53 53 53 53 54 55 56 56 56 56 54 52 51 50 49 48 48 49 49 50 50 50 50 50 50 50 49 48 48 47 46 45 44 43
40 39 40 39 39 39 39 40 42 42 43 46 48 50 54 59 64 70 74 78 82 82 78 70 64 59 56 55 55 53 52 51 51 50 49 49 49 48 47 47 48 48 49 51 53 54 54 53 52 52 51 51 52 52 53 54 55 56 57 57 58 58 58 58 57 55 54 52 50 50 49 49 50 50 50 50 50 50 49 49 48 48 47 46 46 46
53 52 51 51 51 51 51 52 53 53 55 58 61 66 72 76 79 80 78 73 69 67 64 60 58 57 56 56 55 54 53 52 52 51 51 50 50 49 50 51 52 54 54 53 54 54 54 54 54 55 55 55 55 55 55 55 55 56 57 57 57 58 57 58 58 57 56 55 54 53 52 51 51 51 51 51 51 51 50 49 48 47 46 45 45 45
67 66 65 64 63 63 64 64 63 63 64 66 69 73 75 75 73 70 67 64 64 65 65 65 65 64 62 62 60 60 59 58 57 57 56 55 54 53 53 55 56 57 58 58 57 57 56 55 55 56 56 57 57 57 57 57 57 57 58 58 58 58 57 57 57 57 56 55 55 55 54 54 53 53 54 54 55 55 54 53 52 50 48 47 46 45
66 66 67 67 68 68 69 68 66 66 66 66 67 69 70 70 70 68 67 65 65 67 69 68 67 66 65 64 63 62 62 62 62 60 59 59 60 60 61 60 59 59 58 58 57 56 55 54 53 53 53 53 54 54 54 55 56 56 57 58 58 58 58 58 58 57 56 56 56 56 56 56 56 57 58 58 58 59 59 59 58 55 53 52 50 50
67 67 68 69 69 69 71 71 69 68 68 68 69 70 73 74 72 70 69 65 63 69 74 71 69 68 65 63 63 61 61 62 61 57 57 60 63 64 64 62 61 59 57 56 54 52 51 50 49 49 49 49 50 51 51 51 52 52 53 54 54 55 55 55 55 55 55 56 56 56 57 57 57 58 59 60 60 61 61 62 61 60 58 57 55 54
70 69 70 72 72 72 72 73 74 72 69 68 69 69 70 72 70 68 69 66 64 71 75 72 67 65 63 60 59 58 57 59 58 54 54 56 57 58 59 58 57 56 55 53 51 50 49 48 47 46 46 46 47 47 47 46 46 45 45 45 46 47 48 49 49 49 50 51 52 53 53 53 55 55 56 57 57 58 59 60 60 61 60 59 58 57
69 68 69 70 71 70 69 69 70 68 64 64 66 66 66 68 68 68 68 66 64 67 68 65 61 58 55 53 52 52 52 52 53 52 50 50 49 49 51 51 51 51 51 49 48 48 47 47 46 45 44 43 42 41 40 39 39 39 40 41 42 44 44 45 45 45 45 46 46 47 48 48 50 50 51 52 53 54 55 56 56 58 59 59 59 59
68 68 69 69 69 68 67 66 67 66 65 66 68 67 65 66 66 66 64 61 59 58 55 53 51 48 46 45 44 44 44 44 45 46 45 44 43 43 43 43 44 45 45 45 44 44 44 43 42 41 40 38 36 36 36 37 37 38 39 40 41 42 42 42 43 42 42 42 43 43 45 45 46 47 47 48 49 50 51 51 50 51 53 55 57 58
67 67 68 67 66 66 65 63 63 63 61 61 62 60 59 59 59 58 57 53 49 46 44 43 43 41 40 40 40 40 41 41 41 41 41 40 40 39 39 39 39 39 39 38 38 37 37 37 36 36 36 35 35 36 36 37 37 37 38 39 40 39 38 38 38 38 38 38 39 40 40 41 42 42 42 43 44 44 44 43 42 42 44 47 50 52
61 61 61 59 57 58 57 54 52 52 51 49 49 49 50 50 48 47 46 44 41 39 39 39 39 39 40 40 40 40 40 40 40 39 38 39 39 38 38 37 36 36 36 35 35 34 33 33 34 35 36 37 37 37 36 35 34 35 36 38 39 37 36 35 34 34 35 35 36 36 36 37 38 38 39 40 41 41 40 39 38 38 39 40 42 44
50 49 49 48 46 46 46 44 42 43 43 41 40 41 41 40 40 40 40 40 39 39 39 40 39 39 39 39 39 40 39 38 38 37 37 37 38 38 38 38 38 37 36 36 36 35 35 36 36 37 38 38 36 34 33 32 32 33 35 36 35 33 32 32 32 32 33 34 34 34 33 34 34 35 36 37 37 37 37 36 35 35 36 36 37 38
42 41 42 42 42 41 42 42 42 41 39 36 34 34 34 33 33 34 35 37 38 38 38 37 37 36 36 36 37 38 38 38 37 37 37 36 37 38 39 39 39 39 38 38 37 38 39 40 39 38 39 38 34 31 31 30 30 31 34 34 33 31 30 31 32 33 33 34 33 33 32 32 31 31 32 32 34 34 34 33 33 34 33 33 34 34
40 41 41 42 42 42 43 44 43 39 35 31 30 30 29 29 30 31 32 33 34 35 36 35 35 34 34 35 36 37 37 37 38 38 37 36 35 37 38 39 40 40 39 38 37 37 37 37 36 36 35 35 33 30 29 29 29 31 34 34 32 33 34 35 36 37 37 35 33 32 31 31 30 30 31 31 31 32 31 31 31 31 32 32 33 34
39 40 41 40 40 40 41 41 40 37 34 31 30 29 27 27 28 29 30 31 32 33 35 35 35 35 34 34 35 35 36 36 37 37 38 37 37 38 39 39 37 35 35 33 32 31 31 31 32 32 32 33 32 30 29 30 31 32 33 32 33 36 38 39 40 41 40 38 36 35 34 33 34 35 35 34 32 31 31 31 32 32 33 34 35 37
38 39 38 37 36 37 39 39 38 37 36 34 32 30 28 27 27 28 28 30 31 32 33 34 35 35 35 35 34 34 34 35 34 33 34 35 37 38 38 35 32 28 27 26 25 26 27 28 29 30 31 32 31 30 31 33 34 33 31 32 37 40 40 40 40 40 39 39 38 37 37 38 39 39 38 37 35 35 35 36 37 38 38 38 37 37
36 37 35 34 35 37 38 37 36 35 37 37 34 30 27 26 26 27 27 27 28 29 30 31 32 32 31 31 31 31 31 32 31 29 29 30 31 32 30 29 27 27 26 25 24 25 25 27 28 30 32 33 33 33 34 35 32 29 30 35 40 41 39 39 39 39 38 37 36 36 37 37 37 36 36 36 35 35 37 39 40 40 39 37 36 35
33 33 32 31 32 34 34 33 31 30 32 33 31 28 26 24 25 26 28 28 27 26 25 26 27 28 27 26 26 26 27 27 27 26 26 27 27 26 26 26 27 28 28 27 27 26 26 27 29 30 32 33 33 34 36 34 30 29 34 39 40 38 37 39 39 38 36 35 35 36 36 36 35 33 33 33 33 32 33 34 34 34 34 34 34 35
Wind_Speed
42 42 41 41 41 42 42 42 42 42 41 41 41 41 41 41 41 40 39 39 39 39 38 38 39 40 40 40 40 39 38 37 38 40 41 41 41 41 41 42 42 41 41 41 42 42 42 41 42 42 42 42 42 42 42 41 40 39 39 39 40 41 41 41 41 41 40 39 38 37 37 36 36 35 35 34 34 33 33 32 32 31 31 31 32 32
43 42 41 42 42 44 45 45 44 44 44 43 43 43 44 44 42 42 41 40 40 40 40 40 41 41 41 41 41 41 40 39 39 39 40 40 40 39 39 39 38 37 37 37 38 38 37 37 38 38 38 38 38 38 37 36 35 34 34 34 35 36 37 37 37 37 36 35 35 34 33 33 32 32 32 32 32 31 31 31 31 31 30 31 31 32
44 42 42 43 43 44 46 46 45 45 45 45 45 45 45 45 44 43 42 42 42 42 42 42 43 42 43 43 43 43 41 40 41 41 41 40 40 39 39 38 37 36 36 36 36 36 35 36 36 36 36 35 35 34 33 31 30 30 30 31 32 33 34 34 34 33 33 32 31 31 30 30 30 30 30 30 30 30 30 30 29 29 29 29 30 31
43 42 42 42 43 44 45 46 46 46 46 45 45 46 46 46 45 44 43 43 43 43 43 43 44 44 45 45 44 44 42 41 42 42 41 41 40 40 40 39 39 37 37 37 36 36 35 35 34 34 33 33 33 32 30 27 26 27 28 29 30 31 31 31 31 31 30 29 29 28 28 28 28 28 28 28 28 28 28 28 28 28 28 28 29 30
41 41 41 41 41 42 43 44 45 45 45 45 45 46 47 46 46 45 44 44 44 44 44 44 45 46 45 45 45 45 43 43 43 43 42 42 41 41 41 42 41 40 40 39 39 37 36 35 34 33 33 33 32 31 27 24 23 25 26 28 29 29 29 28 28 28 28 27 27 26 26 26 26 26 26 26 26 26 26 27 27 27 28 28 29 31
40 39 39 39 39 40 41 42 43 43 43 44 44 45 45 45 45 45 44 44 45 45 45 44 47 47 45 46 46 46 46 45 44 44 44 44 43 43 44 44 44 43 43 42 41 40 38 37 36 35 35 34 33 31 26 22 23 24 25 27 28 27 26 26 26 27 26 26 25 25 25 24 24 24 24 25 25 25 26 26 27 27 28 29 29 31
39 39 39 39 38 39 40 40 40 41 41 42 42 42 42 42 42 43 43 43 45 45 45 45 48 48 46 47 48 47 48 47 46 46 46 46 46 45 46 46 46 46 45 45 44 43 42 40 38 38 37 36 35 32 27 23 24 25 25 26 26 26 25 25 25 26 25 25 25 25 25 25 25 25 25 26 26 26 26 27 27 28 29 29 30 31
40 39 39 39 39 39 39 39 39 39 39 40 40 39 39 39 39 40 40 41 42 43 44 45 47 48 47 48 49 48 49 49 47 47 48 48 48 48 48 48 48 48 48 48 47 46 45 44 43 42 41 40 38 36 32 27 27 28 27 26 26 26 26 26 26 26 25 26 26 26 26 27 27 27 27 27 27 28 28 28 28 29 30 31 32 32
41 41 41 41 41 41 40 40 40 39 40 40 39 38 38 38 38 38 38 39 39 40 41 42 44 46 46 48 49 49 48 49 48 49 49 49 49 49 49 49 49 50 50 50 49 49 47 46 46 45 44 43 41 40 37 32 31 32 31 29 28 28 28 28 28 27 27 27 27 28 28 29 30 30 30 29 29 30 30 30 30 30 31 32 33 33
43 43 42 42 43 43 42 42 42 41 42 41 39 39 39 39 39 38 38 39 38 38 39 40 41 41 41 43 46 46 46 46 47 48 49 49 50 50 49 49 49 49 50 51 51 50 50 49 48 47 46 46 44 44 41 37 36 36 35 33 32 31 30 30 30 30 30 29 29 30 30 31 32 33 32 32 31 32 32 32 31 31 32 33 33 34
46 46 45 45 44 45 44 44 44 44 44 43 41 42 42 41 41 40 40 40 40 39 40 40 40 39 39 41 44 45 44 44 45 46 47 48 49 49 49 49 49 49 50 51 51 52 52 50 49 48 48 47 45 45 44 41 40 39 38 37 36 34 34 33 32 32 32 33 33 33 33 34 34 35 35 34 34 33 33 33 33 33 33 33 34 35
48 48 48 47 46 46 46 46 46 46 46 45 44 45 45 44 44 43 43 43 42 42 42 42 42 40 41 42 44 46 45 44 44 44 44 45 46 47 47 48 48 49 50 51 51 52 52 51 49 49 49 47 47 46 45 43 42 41 41 41 40 39 38 37 36 35 35 36 36 37 37 37 37 38 38 37 37 36 36 35 35 35 34 34 35 35
49 49 49 49 49 49 48 48 48 47 47 47 48 48 47 48 48 46 46 46 45 46 45 45 45 43 44 45 46 48 49 48 47 46 46 45 45 46 45 46 47 47 48 49 51 52 52 51 51 51 50 49 49 48 46 45 44 43 43 43 43 43 42 42 41 40 39 39 39 39 40 40 40 40 40 40 40 40 39 38 38 37 36 36 36 36
51 50 50 50 50 51 50 50 50 49 49 49 50 50 49 50 50 48 49 49 48 50 49 48 48 46 47 49 49 51 52 53 52 51 50 49 48 48 47 47 47 47 47 48 49 50 51 52 52 52 52 51 51 50 48 48 47 46 45 44 45 45 46 46 45 44 44 43 42 42 42 42 42 42 42 43 43 42 42 41 41 40 39 38 38 37
53 52 52 51 51 51 51 51 51 50 50 51 51 51 50 52 52 50 51 50 50 52 51 49 49 49 50 52 53 53 54 55 56 56 54 53 52 51 50 50 50 50 49 49 49 50 51 51 52 52 52 52 52 51 50 50 49 48 47 46 46 46 47 47 48 47 47 46 46 46 45 44 44 44 44 44 44 44 44 43 43 42 41 40 39 39
54 53 52 52 52 52 52 51 52 51 51 52 51 51 52 52 53 51 51 51 51 53 52 50 50 51 52 54 54 54 55 56 57 58 57 56 55 54 54 53 54 54 53 52 52 53 53 53 53 53 53 53 53 53 51 51 50 49 49 48 47 47 48 48 48 48 48 48 48 48 48 47 47 47 46 46 46 46 46 46 45 45 44 43 42 41
53 53 52 52 52 52 52 51 51 51 51 52 51 52 52 52 53 53 52 51 52 53 52 51 51 53 54 55 55 56 57 57 57 58 58 58 57 57 56 56 56 56 56 56 55 55 55 55 55 56 56 56 55 55 54 52 52 51 51 50 49 49 49 49 49 49 49 49 49 49 49 49 49 50 50 49 49 49 48 48 48 47 47 46 45 45
51 52 51 51 51 51 51 51 51 51 51 52 52 52 52 52 53 54 53 53 53 53 53 52 53 54 55 56 57 58 58 57 58 59 59 59 59 59 58 58 58 58 58 58 58 57 57 57 58 58 59 59 59 58 56 55 54 54 53 53 52 51 51 51 51 50 50 50 50 50 50 50 51 51 51 51 51 51 51 51 50 50 49 49 48 48
49 50 50 51 50 50 51 51 51 51 51 52 52 52 52 53 54 55 54 53 54 54 54 53 54 55 57 59 60 59 58 58 58 59 60 60 60 60 60 60 60 59 59 60 59 58 58 59 60 60 61 62 61 60 59 58 57 57 57 57 57 55 55 54 54 52 52 52 51 51 51 52 52 53 52 52 53 53 52 52 52 52 51 51 50 50
48 49 50 50 50 50 51 50 50 51 50 51 52 52 53 53 54 55 55 54 55 55 54 54 54 55 58 60 60 59 58 58 58 59 59 60 60 60 60 60 60 60 60 60 60 59 59 60 61 62 62 62 62 61 60 60 59 59 60 60 60 59 58 58 57 56 55 55 54 53 53 54 54 54 54 54 54 54 53 53 53 53 53 53 53 52
48 49 50 50 50 51 51 51 50 51 51 52 52 53 53 54 54 55 55 55 55 55 55 53 52 54 58 58 57 58 57 57 57 57 57 58 58 58 58 59 59 60 60 60 60 60 60 60 61 62 62 63 62 62 62 62 61 61 61 62 63 63 61 59 58 58 59 59 59 58 58 57 57 56 56 55 55 54 54 54 54 54 54 55 55 55
49 49 50 50 51 52 52 51 52 52 53 53 54 54 54 54 55 55 54 55 55 55 54 53 50 52 56 55 54 56 56 56 55 55 55 55 55 55 56 56 57 58 59 59 59 59 59 59 60 60 61 61 62 62 62 62 62 62 63 63 63 64 63 61 60 60 60 61 62 62 61 61 60 60 59 59 58 57 56 55 55 55 56 56 56 57
50 50 50 51 52 53 53 53 54 54 54 55 55 55 55 55 55 55 54 54 54 51 51 52 49 50 53 53 53 54 55 55 54 53 53 53 53 54 54 54 55 56 57 57 57 57 57 57 57 57 57 57 57 58 58 58 59 60 60 61 61 62 62 62 61 61 61 63 63 63 62 62 62 63 62 62 62 62 60 59 58 58 58 58 58 58
52 52 52 53 53 54 54 54 55 55 55 55 54 54 55 54 54 54 53 54 53 49 50 51 48 48 52 52 52 52 53 53 53 53 53 53 53 53 53 54 54 55 55 56 55 55 55 54 54 54 54 53 53 53 53 54 55 55 56 57 57 58 59 59 59 59 59 62 63 62 62 63 63 64 64 64 64 65 64 64 63 62 61 61 61 61
53 53 53 54 55 54 55 55 55 55 55 55 54 54 54 54 53 53 53 54 52 50 51 51 48 49 51 50 50 51 52 53 54 53 53 53 53 53 53 54 54 54 55 55 55 55 54 54 54 53 53 52 52 52 52 52 53 54 54 55 55 56 57 56 56 56 57 60 61 60 60 61 62 62 63 64 65 67 67 67 66 66 65 64 65 64
55 55 55 56 56 55 56 56 55 55 55 55 54 54 54 54 54 53 53 53 52 51 51 51 50 51 52 51 51 52 52 53 54 54 54 53 53 53 53 54 54 55 55 55 55 55 55 55 55 55 55 54 54 54 54 54 55 55 55 56 56 56 57 57 57 56 57 58 58 58 59 60 60 60 60 62 64 66 67 67 67 67 67 67 67 67
56 56 56 57 57 56 57 56 55 55 55 55 55 55 55 55 55 54 53 53 53 52 52 52 52 53 54 54 55 55 54 54 54 54 54 54 53 54 54 54 55 56 56 57 57 57 58 58 58 58 58 58 57 57 57 57 57 58 58 58 58 58 58 59 59 58 59 59 59 59 60 60 59 59 59 60 61 63 65 65 65 66 67 69 69 69
56 56 56 57 57 57 57 56 54 55 56 56 56 55 55 55 55 55 53 54 54 53 53 54 53 54 57 57 57 57 56 54 55 55 55 55 55 55 55 55 56 57 58 59 60 60 60 61 61 61 61 61 61 61 61 60 60 60 60 61 60 60 60 60 61 61 62 61 60 61 62 61 60 60 60 60 61 62 63 64 63 64 65 67 69 70
56 56 56 56 56 56 56 55 54 55 56 56 56 56 56 56 55 54 54 55 56 55 54 55 53 53 58 59 58 59 58 56 57 56 55 56 57 57 58 58 58 58 59 60 62 63 63 63 63 64 64 64 64 64 64 65 64 63 63 63 63 64 64 63 63 64 64 64 63 63 64 64 63 62 62 62 62 62 63 63 63 62 63 64 65 67
56 55 54 54 55 54 55 55 54 55 56 56 56 56 56 56 55 55 55 56 57 55 55 57 55 53 58 61 60 62 62 60 59 58 57 59 60 61 62 62 62 62 62 62 63 64 65 66 66 66 66 66 66 67 67 68 68 67 66 66 66 66 66 66 66 66 66 66 66 66 66 66 66 65 65 64 64 64 64 64 63 63 62 62 63 64
55 54 53 54 55 54 55 56 55 56 56 54 54 54 55 56 57 57 56 57 58 57 57 59 57 56 59 62 63 65 65 64 63 61 61 61 62 63 64 64 65 65 65 65 66 66 67 67 68 68 69 68 68 69 70 71 71 71 70 70 70 69 68 69 69 69 69 69 69 69 69 69 69 68 67 67 66 66 66 65 65 65 64 63 64 64
55 54 54 56 55 54 56 56 56 56 54 51 51 52 55 58 58 58 58 59 60 60 61 61 59 59 62 64 66 67 67 67 66 65 64 64 64 65 66 66 66 67 67 67 68 68 69 69 70 70 71 71 71 71 72 73 73 73 73 73 73 72 71 71 71 72 72 72 71 71 72 71 71 71 70 70 69 69 68 68 67 67 67 66 66 65
56 56 56 57 55 55 55 55 56 56 53 50 50 54 58 60 59 60 61 62 63 64 64 64 63 64 65 67 69 70 69 70 70 69 69 68 68 68 67 66 67 67 68 68 68 69 70 70 71 71 72 72 72 73 73 73 74 74 74 74 75 74 74 74 73 73 74 73 73 73 73 73 72 72 72 72 72 71 71 70 70 70 69 69 68 67
56 56 57 56 55 55 54 54 57 57 54 53 54 57 61 62 62 64 64 65 66 67 68 68 67 68 68 69 71 73 72 73 73 73 72 72 71 70 69 68 67 68 68 69 70 70 71 71 72 72 73 73 74 74 74 74 74 75 75 75 76 76 76 76 76 76 76 75 75 74 74 73 73 73 73 73 73 73 73 73 72 72 72 71 70 70
56 57 57 56 56 57 56 56 59 58 56 58 60 61 63 65 66 68 68 68 69 70 71 71 70 70 70 71 72 73 74 75 75 76 75 74 73 73 71 70 69 69 69 70 71 72 72 73 73 73 74 74 75 75 76 76 76 76 76 77 77 78 78 79 79 79 79 78 78 76 75 75 75 74 74 74 74 74 74 74 74 74 74 73 73 72
58 59 59 59 59 60 59 60 61 60 60 62 64 65 67 69 70 71 71 71 71 72 73 73 72 72 72 72 73 74 75 76 77 77 77 76 76 74 73 72 71 71 72 72 72 73 73 73 74 74 75 75 76 76 76 76 76 76 77 77 78 79 80 80 81 81 81 81 80 79 78 77 76 76 76 75 75 75 75 75 75 75 75 75 74 74
61 62 62 63 63 63 63 64 64 64 64 65 67 68 70 72 72 73 73 72 72 74 75 74 74 74 74 74 74 75 76 78 78 79 78 78 77 76 75 74 74 74 74 73 73 74 74 74 74 75 75 76 76 76 76 76 76 76 77 77 78 79 80 81 82 82 82 82 81 80 80 79 78 77 77 77 76 76 76 76 76 76 76 75 75 75
64 65 65 66 66 66 67 68 68 68 68 68 69 71 73 74 75 76 76 75 74 75 76 76 76 76 75 75 76 76 77 79 80 81 78 77 77 77 77 76 76 75 75 75 75 75 74 74 75 75 75 75 76 76 75 75 75 75 76 77 78 79 80 81 82 83 82 82 81 81 80 79 78 78 77 78 77 77 77 77 77 77 76 76 76 75
68 68 68 69 70 70 71 72 72 72 72 72 72 73 75 77 77 78 79 78 75 75 78 79 78 77 77 77 76 77 77 78 82 82 77 75 77 78 77 77 77 77 76 76 76 75 75 74 74 74 74 74 74 74 74 73 74 74 74 75 76 78 79 80 81 82 81 81 81 81 80 79 78 78 78 78 78 78 77 77 77 77 77 77 76 76
71 71 71 73 73 73 74 74 75 76 76 75 76 77 77 79 80 80 81 80 77 77 79 80 79 78 78 77 77 77 77 78 82 82 78 76 78 78 77 78 77 77 77 77 76 75 75 74 73 72 72 71 71 71 71 71 71 70 70 71 72 74 76 77 78 78 79 79 79 79 79 78 78 78 78 78 78 78 78 78 78 78 78 78 78 77
74 74 74 75 76 76 77 76 77 79 78 77 78 79 79 80 81 82 82 81 79 79 79 79 79 78 78 77 76 76 77 77 80 81 79 78 77 76 77 77 76 76 77 76 75 74 74 73 72 71 70 70 69 69 68 67 66 65 65 66 66 69 71 73 73 73 74 74 75 75 75 75 76 76 76 76 76 77 77 78 78 78 78 78 78 78
76 76 77 78 78 79 79 79 79 80 79 78 80 80 80 81 82 82 82 81 80 79 78 78 78 77 76 75 75 75 75 75 76 77 77 77 75 74 74 74 73 73 73 72 72 72 71 70 69 69 68 67 66 65 64 63 61 61 61 62 64 67 69 69 69 69 70 70 70 70 71 72 72 73 73 73 73 74 75 76 76 76 77 77 78 78
78 78 78 79 79 79 80 80 80 80 79 79 80 79 79 80 81 81 81 81 79 78 76 75 75 74 73 73 72 72 72 72 72 72 72 72 72 71 71 70 69 68 68 68 68 68 66 65 65 65 64 64 63 62 61 60 59 58 59 60 63 65 66 66 66 66 66 67 67 68 68 69 70 70 70 70 70 71 72 73 73 73 73 74 75 76
78 77 78 78 78 78 79 80 79 78 78 78 77 77 77 77 78 78 77 77 76 74 73 71 71 70 70 70 70 70 69 69 69 69 68 69 69 68 67 67 66 66 65 65 65 64 63 62 61 61 61 61 61 61 59 58 57 56 57 59 62 63 62 62 62 62 63 63 64 65 66 66 67 67 67 67 67 68 69 69 69 69 69 70 71 72
75 75 75 76 76 75 76 77 75 75 75 75 73 72 72 73 72 72 71 71 71 71 69 68 68 68 67 67 67 67 68 67 67 67 66 66 66 66 66 66 66 65 65 64 63 63 62 60 59 59 59 60 60 59 58 56 56 55 56 58 60 60 59 59 59 59 60 61 62 62 63 63 63 64 64 64 64 65 66 66 65 65 65 66 66 67
72 72 72 72 73 72 72 73 73 72 72 70 69 68 68 67 67 66 66 66 67 68 67 66 65 65 65 65 65 65 66 66 66 66 66 65 65 65 65 65 65 64 63 62 62 61 60 59 58 58 58 59 59 57 56 55 54 54 55 57 57 56 56 56 56 56 57 59 60 60 60 61 61 60 60 60 61 62 62 62 62 62 62 62 62 63
68 68 69 69 69 69 69 70 71 70 69 67 66 66 65 64 63 63 63 63 63 64 64 64 64 63 63 64 64 64 65 65 65 65 65 65 64 63 63 63 62 62 62 61 61 60 59 58 57 57 57 58 58 57 55 54 52 52 53 54 53 52 52 52 52 53 55 56 57 56 56 57 56 56 56 57 58 58 59 58 58 58 58 58 58 59
64 65 66 66 65 66 67 67 68 67 67 66 65 65 64 62 61 61 61 61 61 61 62 63 63 62 62 63 63 63 63 63 63 64 64 63 63 62 62 62 61 61 60 60 60 59 57 56 55 55 55 56 56 56 54 52 51 50 50 50 49 49 50 49 50 52 53 54 53 52 52 51 51 51 53 53 54 54 54 53 53 53 53 54 54 55
61 62 63 62 62 62 64 65 65 65 65 65 66 65 64 62 60 60 59 59 59 60 60 61 61 61 61 62 62 62 62 62 62 61 61 61 61 62 62 62 61 59 58 58 57 56 54 54 53 53 53 54 54 54 53 52 51 50 48 46 47 48 49 49 50 51 51 50 49 49 49 49 49 50 50 51 51 50 50 50 50 51 51 52 53 53
58 59 60 59 59 60 62 63 62 62 63 65 66 65 63 61 60 59 59 59 58 58 58 58 58 59 59 60 60 60 60 60 60 60 59 59 60 60 60 60 59 57 56 56 55 53 53 51 51 51 51 52 53 53 52 51 50 47 45 45 48 49 49 49 50 50 49 49 48 48 48 48 49 49 49 49 49 48 48 49 50 51 52 52 52 52
56 57 57 56 57 58 60 60 60 59 60 62 64 63 62 60 58 57 58 59 58 57 56 55 56 56 57 57 57 57 57 58 59 58 57 57 58 58 57 56 56 56 56 55 54 53 52 51 50 50 50 51 52 51 51 51 49 46 45 47 49 49 48 48 49 49 49 48 48 48 49 49 49 48 48 48 48 48 47 48 49 50 50 50 50 49
Wind_Direction
262 262 262 262 262 261 261 260 260 260 259 259 259 259 259 258 259 259 259 259 260 259 259 258 258 258 259 260 260 260 260 261 263 265 265 265 265 265 265 265 266 268 268 268 268 268 268 267 267 266 266 267 268 268 268 268 267 266 265 265 264 263 261 261 262 264 264 264 263 262 261 261 261 260 260 260 259 259 257 256 254 252 250 247 245 243
263 263 262 262 261 260 260 259 259 259 259 259 259 259 259 260 260 260 260 260 260 260 260 258 257 258 258 259 259 259 260 260 261 263 265 266 267 267 268 268 269 270 269 268 268 268 268 267 267 267 267 268 269 269 269 268 267 266 265 263 263 262 261 261 260 260 262 262 262 262 261 260 259 258 258 257 256 255 254 253 251 249 247 245 243 242
264 263 262 261 260 260 260 260 259 259 259 259 259 260 260 261 261 260 261 261 261 261 260 259 258 258 258 258 259 260 261 261 261 262 264 266 268 269 270 271 270 270 269 269 268 268 268 268 268 269 269 269 269 269 269 269 268 266 265 263 262 262 262 262 261 260 259 260 260 260 260 258 257 256 255 254 253 253 252 251 250 248 246 243 242 241
264 264 263 262 261 260 260 260 260 260 259 259 259 259 259 260 260 261 261 261 260 260 260 259 258 258 258 259 260 261 262 262 262 262 263 265 267 269 270 270 270 269 269 269 269 269 270 270 271 271 271 269 268 268 269 270 269 267 265 263 262 262 263 264 263 262 261 260 258 257 256 255 254 253 252 251 250 250 250 250 249 248 246 242 240 239
265 264 263 262 262 261 260 260 260 260 260 259 259 259 259 260 260 260 260 260 260 259 259 259 259 259 259 260 260 261 261 260 261 262 262 263 265 266 267 267 267 268 268 268 269 270 271 271 272 272 271 270 269 269 270 271 269 267 266 264 264 263 263 264 264 264 263 261 259 256 254 253 252 252 252 252 251 250 250 250 250 249 247 243 240 240
264 263 262 262 261 260 259 259 259 260 260 259 259 259 260 260 260 260 259 259 258 258 259 259 259 259 260 260 260 260 259 259 259 260 261 261 262 263 263 264 265 265 266 267 268 269 269 269 270 270 270 270 270 270 270 268 266 265 264 265 265 265 264 263 263 263 262 261 260 259 257 256 254 254 254 253 253 251 251 250 250 249 248 246 244 243
262 262 261 261 261 260 260 260 260 260 260 260 260 260 261 261 261 260 260 259 258 258 258 257 258 259 259 259 259 259 260 259 258 258 259 259 260 260 261 262 263 264 265 265 266 266 267 267 267 266 267 268 269 269 268 264 262 262 260 261 264 264 263 262 261 260 259 259 259 259 259 259 258 256 254 254 253 253 251 249 249 248 247 246 245 245
262 261 260 260 260 260 260 261 261 261 261 260 260 260 261 260 260 261 260 260 259 258 257 256 257 258 258 258 259 259 259 260 260 258 258 258 258 259 260 261 262 263 264 264 265 265 265 266 265 265 266 267 267 268 267 263 260 259 258 257 258 260 260 259 258 258 257 256 257 257 257 258 258 256 255 254 254 255 253 251 248 246 245 244 243 244
263 262 260 260 259 259 259 259 260 260 260 260 260 260 260 259 259 259 259 259 259 259 258 257 258 259 259 260 261 260 259 260 260 260 259 259 259 259 260 261 263 264 265 265 265 265 265 265 264 265 266 266 267 267 268 265 261 260 259 257 254 254 256 257 258 258 257 256 255 255 256 256 257 258 257 255 254 254 255 254 250 247 245 244 243 243
262 261 260 259 259 259 258 258 258 258 259 260 260 260 260 260 260 259 259 259 259 260 260 260 260 262 262 263 263 262 260 259 259 259 260 260 260 261 261 262 263 264 265 265 265 265 265 264 265 265 265 266 267 268 269 266 263 263 263 261 258 254 254 255 257 258 259 258 257 256 257 258 259 259 259 257 254 252 252 253 252 250 247 246 245 244
260 260 259 259 259 259 259 259 259 259 259 260 261 261 261 261 261 261 261 261 261 261 261 262 263 264 264 264 265 264 262 260 259 259 259 260 261 261 262 262 262 263 264 265 265 265 265 265 266 266 266 266 267 267 268 266 264 264 264 264 262 259 256 255 254 255 256 257 258 258 258 258 259 260 259 258 255 253 251 250 250 250 249 247 247 246
260 259 259 259 259 259 259 259 259 259 260 260 260 260 260 260 260 260 261 261 261 261 261 262 263 263 264 264 265 266 265 263 262 261 260 260 261 262 262 262 263 263 263 264 265 266 267 267 267 266 266 266 266 266 266 266 264 263 262 262 262 260 258 256 254 253 253 253 254 254 255 256 257 258 258 258 257 255 253 251 250 250 249 248 248 247
261 260 259 259 258 258 258 258 258 259 259 260 260 260 260 261 260 260 260 261 261 261 261 262 263 262 263 263 264 265 266 266 264 263 262 261 261 261 261 262 262 262 263 264 265 266 268 268 268 267 267 266 265 264 264 263 262 260 259 259 259 258 257 256 254 253 252 251 251 251 251 252 253 254 255 256 257 256 255 253 252 251 251 250 249 248
262 261 260 259 258 258 258 258 258 258 258 258 259 260 260 261 261 261 261 261 262 262 261 261 262 263 263 262 262 263 265 266 266 265 264 263 262 262 261 261 261 260 260 261 263 264 265 266 267 268 268 267 266 264 263 262 261 259 258 257 256 256 256 255 254 253 253 252 251 250 249 249 250 251 252 253 255 255 255 255 254 253 252 251 250 249
263 262 261 260 259 258 258 258 258 258 258 258 258 259 260 260 260 260 261 261 261 261 261 261 262 262 262 261 262 262 264 265 266 266 266 265 265 264 263 262 262 261 260 260 260 261 262 263 264 265 266 266 266 265 264 263 262 261 259 258 256 256 255 255 255 254 253 252 251 250 249 249 249 249 250 251 252 253 253 253 254 253 252 251 251 250
264 263 262 261 261 260 259 259 259 258 259 259 259 259 259 260 260 260 260 260 260 261 261 261 261 261 260 261 261 262 262 263 265 266 267 267 266 266 265 264 263 263 262 261 261 261 262 262 262 263 263 264 264 264 264 264 263 263 261 260 258 257 256 256 255 255 254 253 252 251 250 249 249 249 249 250 250 251 251 251 252 252 252 251 250 250
264 263 262 261 261 261 261 260 260 260 260 260 260 260 260 261 262 261 260 260 261 262 262 262 261 261 261 261 261 261 261 261 263 264 265 266 266 265 265 264 263 263 263 262 262 262 262 263 263 263 263 263 263 264 264 264 264 264 263 263 261 260 259 257 256 256 255 254 253 252 251 251 250 250 249 249 249 249 250 250 250 250 250 250 249 249
264 264 263 262 261 262 262 261 261 260 261 261 261 261 261 261 262 262 262 261 261 262 263 263 262 262 262 262 261 261 261 262 262 263 264 264 264 264 264 264 263 263 263 262 262 262 262 263 263 263 263 263 263 263 263 263 264 264 264 263 263 262 261 260 259 257 257 256 255 254 253 252 251 250 250 250 249 249 248 248 249 249 249 249 249 249
263 263 264 263 262 262 262 262 262 262 262 263 263 263 263 262 262 263 263 263 263 263 263 263 263 263 263 262 262 261 261 262 262 262 263 263 264 263 263 263 263 263 262 263 262 261 261 262 262 261 262 262 263 264 264 264 263 263 263 263 262 261 261 261 261 260 259 258 258 256 255 254 253 252 251 250 250 250 249 248 248 248 249 249 249 249
262 263 264 264 264 263 263 263 263 264 264 264 265 265 265 265 265 265 265 265 265 265 264 264 264 265 264 263 263 263 262 261 261 261 261 262 262 262 262 262 262 262 261 261 261 261 260 260 261 261 261 261 262 263 263 262 262 263 263 262 262 261 259 259 260 260 260 259 259 258 257 256 255 254 253 252 252 251 251 250 250 249 249 249 249 250
262 262 263 264 264 264 264 264 264 264 264 264 264 265 265 266 266 266 267 266 266 265 265 264 264 265 264 265 265 265 263 261 261 261 261 261 262 262 262 261 261 261 260 260 260 259 258 258 259 260 260 261 261 261 261 261 261 260 261 261 261 261 259 258 258 259 259 259 258 257 256 256 256 256 255 255 254 253 252 251 251 250 250 249 249 249
261 261 261 262 263 264 265 265 265 265 266 266 265 265 265 265 265 266 266 266 266 266 266 265 263 263 263 264 264 264 264 263 262 261 261 261 261 261 262 262 261 261 261 260 260 260 259 259 258 259 260 261 262 262 262 262 261 261 260 261 261 261 261 260 259 257 257 257 257 257 256 256 256 256 256 256 255 254 253 252 251 251 250 250 249 248
261 261 261 262 263 264 265 266 267 267 267 267 267 267 267 266 266 266 265 264 264 265 265 264 262 261 263 263 262 263 264 264 263 262 261 260 260 260 261 261 261 261 262 262 262 261 261 261 260 260 261 261 262 263 263 264 263 263 263 262 262 263 263 262 261 259 258 258 257 256 256 256 256 256 256 256 256 255 254 252 251 250 250 249 249 249
260 261 261 262 263 265 266 266 267 267 267 268 268 269 269 268 268 268 268 266 265 264 264 263 261 261 261 262 263 264 265 265 264 263 263 262 262 261 261 261 261 262 262 263 263 262 262 262 262 261 261 261 261 262 263 263 263 264 264 263 263 263 263 263 262 261 260 259 258 257 256 256 255 256 256 256 256 255 254 252 251 250 249 249 249 248
260 260 261 262 263 264 265 266 266 266 267 267 268 268 269 269 269 270 270 270 269 269 268 267 265 263 262 262 263 263 263 264 265 265 265 264 264 264 263 263 263 263 264 265 265 265 264 264 264 264 263 263 262 262 262 262 262 262 262 263 263 263 263 262 262 261 260 260 260 259 257 256 254 254 254 255 255 254 254 253 252 251 250 249 249 249
260 260 261 262 263 263 264 264 265 266 266 266 267 267 267 267 268 268 268 269 270 270 270 270 270 268 267 266 264 263 263 263 264 265 265 264 264 264 265 265 265 265 266 266 267 267 267 267 267 266 266 265 264 263 263 262 262 262 261 262 262 262 262 262 261 260 260 260 260 260 259 257 255 254 253 253 254 254 254 253 253 253 252 251 250 249
260 261 261 262 263 263 263 263 264 265 265 265 266 266 266 266 266 266 267 267 268 268 268 269 269 270 270 269 268 267 266 266 266 265 265 264 264 263 263 263 264 265 265 265 266 266 267 267 267 267 267 266 266 265 264 263 263 263 263 262 262 261 262 262 262 262 261 260 260 260 260 259 257 256 254 253 253 254 254 253 252 253 252 252 251 250
260 260 261 262 262 262 262 263 263 263 264 264 264 264 264 264 265 266 266 266 266 266 266 266 266 268 269 269 269 269 268 267 267 267 266 266 265 263 262 262 261 262 263 264 264 264 264 264 264 264 265 265 266 266 265 264 264 263 263 263 263 262 261 261 261 261 261 261 261 260 261 260 259 258 257 255 254 254 255 254 253 252 252 252 252 251
261 260 261 261 261 261 262 262 262 262 263 263 264 264 264 264 265 265 265 265 265 265 265 265 265 266 268 268 268 268 267 266 265 265 266 266 266 266 264 263 262 261 260 261 262 263 263 263 263 263 263 264 264 265 265 265 264 263 263 263 263 263 262 262 261 261 261 261 261 261 261 261 261 260 260 259 257 257 256 256 255 253 253 253 253 253
262 262 261 261 261 261 261 262 262 262 262 263 264 265 265 266 265 264 263 264 265 266 266 267 266 265 266 267 267 267 267 266 265 264 264 264 264 265 265 264 264 263 262 261 261 262 263 263 264 264 264 264 264 264 264 264 264 264 263 262 262 262 262 263 262 262 262 261 261 261 261 261 261 261 260 260 260 259 259 259 258 256 255 254 254 254
263 263 262 262 262 262 262 262 262 261 262 262 263 264 265 265 264 264 264 265 267 267 267 266 266 266 266 267 267 267 267 267 266 265 264 263 263 263 263 264 264 264 264 263 263 263 263 263 264 264 264 264 264 264 264 264 264 264 263 262 262 261 261 261 262 262 262 262 262 262 262 261 261 261 261 261 260 260 260 260 259 259 257 256 255 254
264 264 263 263 263 263 263 263 263 262 262 262 263 264 264 264 265 266 268 268 268 268 268 268 268 268 267 268 268 269 269 269 269 267 266 265 264 263 263 263 264 264 264 264 264 264 264 264 264 264 264 264 263 263 264 264 264 264 264 264 263 262 261 261 260 260 261 261 261 262 262 262 262 262 262 262 262 261 261 260 260 260 259 258 257 256
265 265 264 264 264 263 263 264 264 264 264 264 264 265 265 266 267 268 269 269 270 270 270 271 270 269 269 270 270 270 270 270 270 269 268 267 265 264 263 263 263 264 264 264 264 264 263 263 263 263 263 263 263 263 263 263 264 264 265 265 265 265 264 263 262 261 260 260 260 260 261 261 262 262 262 262 262 262 262 261 261 261 260 260 259 258
265 265 264 265 265 264 264 264 265 266 267 267 266 266 267 268 269 269 269 270 271 271 271 271 271 270 271 271 271 272 272 272 271 270 269 268 267 266 265 264 263 263 264 264 263 263 263 262 262 262 262 263 263 263 263 263 263 264 264 264 265 265 265 264 264 263 262 261 260 259 259 259 260 260 260 261 261 261 261 261 261 261 260 260 259 259
265 265 265 265 265 265 265 265 265 267 268 268 267 268 268 269 269 270 270 270 271 271 271 271 271 271 271 271 272 272 273 272 272 272 271 270 270 269 268 267 266 265 264 263 263 262 262 262 262 262 262 263 263 263 263 263 263 263 264 264 264 264 264 264 264 264 263 263 262 261 260 259 259 259 259 259 260 260 260 260 260 260 260 260 260 259
266 266 266 266 266 266 266 265 266 266 267 267 268 268 268 268 269 269 269 269 270 270 271 271 272 272 272 272 272 273 273 273 272 272 272 271 271 270 270 269 268 267 265 264 264 263 262 262 262 262 262 263 263 263 263 263 263 263 264 264 264 264 264 264 264 264 263 263 263 263 262 261 261 261 260 260 260 260 260 260 260 260 260 260 260 260
266 266 266 267 267 267 267 267 267 267 266 266 267 267 267 268 268 268 268 269 269 270 270 271 271 272 272 272 273 273 273 273 272 272 271 271 271 271 271 270 268 267 267 266 265 264 264 263 263 262 262 262 262 262 263 263 263 263 263 263 263 263 263 263 263 263 263 263 263 263 263 262 262 262 262 261 261 261 261 261 261 261 261 261 261 261
265 265 266 266 266 267 267 267 267 267 267 267 267 267 268 269 269 270 270 270 270 271 271 272 272 272 272 272 272 272 272 272 271 270 270 271 272 271 271 270 269 268 267 267 266 265 265 264 264 263 263 263 263 263 263 263 263 263 262 262 262 262 262 262 262 262 262 262 262 262 262 262 262 262 262 262 262 261 261 261 261 261 262 262 261 261
266 267 267 267 267 267 267 268 269 269 269 269 269 269 270 270 271 271 271 271 272 272 272 272 272 272 272 272 272 271 271 271 271 270 270 270 270 269 269 269 269 269 268 268 267 267 266 266 265 265 264 264 264 264 264 264 263 263 263 262 262 262 262 262 261 261 261 261 261 261 261 261 261 261 261 261 261 261 261 261 261 261 262 262 261 261
267 268 268 268 268 269 269 269 270 270 270 270 270 270 271 271 272 272 272 272 272 272 272 272 272 272 272 271 271 271 270 270 270 271 270 268 268 268 268 268 269 269 269 269 269 269 269 268 268 267 266 266 265 265 265 264 263 263 263 263 262 262 262 261 261 261 261 261 261 261 261 261 261 260 260 260 260 260 260 260 260 260 261 261 261 261
269 269 269 269 269 270 270 270 270 270 270 271 271 271 271 271 271 272 272 273 273 272 271 272 272 272 271 271 271 270 270 269 270 271 270 269 269 268 268 268 268 269 269 269 270 270 270 270 269 269 268 268 267 266 265 265 264 263 262 262 262 261 261 260 260 260 260 260 261 261 261 261 261 261 260 260 260 260 260 260 259 259 259 260 260 261
269 269 269 269 269 270 270 270 270 270 271 271 271 271 271 272 272 272 273 273 272 272 271 271 271 271 271 271 271 270 270 269 270 270 271 271 271 270 270 269 269 269 269 269 269 269 269 269 269 269 268 268 267 266 265 265 264 263 262 261 260 259 259 259 259 259 259 260 260 260 260 260 260 260 260 260 259 259 259 259 259 258 258 258 259 259
269 269 269 269 270 270 270 270 270 271 271 271 271 271 271 271 272 272 272 272 272 272 271 272 272 272 272 272 271 271 271 270 270 271 271 271 271 271 271 270 270 270 269 269 268 268 267 267 267 267 267 267 267 266 265 264 264 263 262 261 260 259 259 259 259 260 260 260 260 259 259 259 259 259 259 259 259 259 259 259 259 259 258 258 258 258
268 269 269 270 270 270 271 271 271 271 271 271 271 271 271 270 270 271 271 271 272 272 272 272 272 272 272 272 272 272 271 271 271 271 271 271 271 271 271 271 271 270 269 269 268 268 268 267 267 267 267 266 266 266 265 264 263 263 262 261 260 260 260 260 260 260 260 260 260 260 259 259 259 259 259 259 259 259 259 259 259 259 259 258 258 258
269 270 270 271 271 271 272 272 273 272 272 271 271 271 270 270 270 271 271 272 272 273 272 272 272 271 271 271 271 271 271 271 271 271 270 270 270 271 271 271 271 270 270 270 269 269 269 268 268 267 267 267 266 266 265 265 263 262 261 260 260 260 260 260 260 260 260 260 259 259 259 259 258 258 258 258 258 258 259 259 259 259 259 259 258 258
271 272 272 273 273 273 274 274 274 274 273 273 273 272 272 271 271 271 271 272 272 272 272 272 271 271 271 271 271 271 271 271 271 271 271 270 270 270 270 269 269 269 269 269 268 268 268 268 267 267 267 267 266 266 265 264 263 262 261 261 261 261 261 261 260 260 259 259 258 258 258 258 258 258 258 258 258 258 259 259 259 259 259 259 259 258
272 273 273 273 274 274 274 274 275 275 275 275 275 274 273 273 273 273 272 272 272 272 272 272 272 272 271 271 271 270 270 270 270 270 270 270 269 268 268 267 267 267 267 267 267 266 266 266 266 266 266 266 266 266 265 264 263 262 261 261 261 261 261 260 260 260 259 258 258 258 258 258 259 259 259 258 258 258 258 258 258 258 258 258 259 259
273 273 273 273 274 274 274 275 275 276 276 277 276 276 275 274 274 273 273 273 273 272 272 272 272 272 271 271 270 270 269 269 268 268 268 269 269 269 268 267 266 266 266 266 266 266 266 266 266 265 265 265 265 265 265 265 264 262 261 261 261 261 260 259 259 258 257 258 259 259 260 260 260 259 259 258 258 258 258 258 258 258 258 257 257 257
273 273 273 273 274 274 275 275 275 276 277 277 276 276 276 275 275 274 273 272 272 271 271 271 271 270 270 269 269 268 268 268 268 267 267 267 267 267 267 267 267 267 267 266 266 266 266 265 265 264 264 264 264 264 264 264 263 262 261 261 261 261 260 259 259 258 259 260 260 260 260 260 259 258 258 257 257 257 257 258 257 257 256 256 255 254
272 272 273 273 274 274 274 274 274 274 275 275 275 275 275 275 275 275 275 273 272 271 270 269 269 268 268 268 268 268 268 268 268 268 268 267 266 266 266 267 268 269 268 268 267 267 265 264 263 262 261 261 262 263 263 262 262 262 262 262 261 260 260 260 261 261 262 262 261 261 261 260 259 257 257 256 256 255 254 254 254 253 254 254 255 255
273 273 273 274 273 273 273 274 274 274 273 273 273 274 275 275 275 275 275 274 274 272 271 270 269 269 269 269 269 268 268 268 268 267 267 267 266 266 267 267 267 267 267 266 266 266 265 264 262 261 260 259 259 260 261 261 262 263 263 262 261 260 261 261 261 261 261 261 261 261 260 259 259 259 258 258 257 256 254 253 253 253 254 255 255 256